Location: Krasnoyarskiy Pitomnik
(51.1333°N, 71.6167°E)
Time: 10:20:24
(UTC+00:00)

CZ-4 R/B - Pass Details

Date: 22 October 2021
Orbit: 530 x 595 km, 97.8° (Epoch: 07 December)

Event Time Altitude Azimuth Distance (km) Brightness Sun altitude
Rises 14:50:17 0° 199° (SSW) 2,736 4.9 -26.2°
Reaches altitude 10° 14:52:45 10° 214° (SW) 1,859 4.2 -26.6°
Maximum altitude 14:55:59 23° 268° (W) 1,242 3.7 -27.1°
Drops below altitude 10° 14:59:17 10° 321° (NW) 1,903 4.7 -27.6°
Sets 15:01:51 0° 336° (NNW) 2,819 5.5 -28.0°
